Location: ??
(34.9170°N, 135.5016°E)
Time: 11:56:54
(UTC+00:00)

ERS-2 - Pass Details

Date: 29 October 2020
Orbit: 493 x 497 km, 98.6° (Epoch: 27 November)

Event Time Altitude Azimuth Distance (km) Brightness Sun altitude
Rises 19:55:03 0° 177° (S) 2,563 5.8 -17.3°
Reaches altitude 10° 19:57:09 10° 183° (S) 1,684 4.8 -16.9°
Maximum altitude 20:00:40 49° 259° (W) 648 2.2 -16.2°
Enters shadow 20:03:24 16° 331° (NNW) 1,378 4.0 -15.6°
